Wind_Speed
11 11 10 10 9 9 9 10 9 8 7 7 6 7 8 4 1 1 2 2 3 3 2 2 3 3 3 2 1 0 2 3 4 5 6 6 7 7 8 8 8 7 7 6 6 6 5 5 4
13 13 12 11 11 10 10 10 9 8 9 8 8 6 7 5 4 4 4 4 4 3 3 4 4 3 3 3 2 2 2 3 5 5 6 6 7 8 8 8 8 8 7 7 7 6 6 5 5
14 14 13 12 10 10 10 10 9 10 12 12 11 7 7 7 7 7 6 5 4 4 5 5 5 4 4 4 3 3 3 4 5 6 6 7 7 8 8 8 8 8 8 8 8 7 6 6 5
16 14 13 11 10 11 11 10 10 12 14 16 14 12 9 9 9 8 7 6 5 5 5 6 6 5 4 4 4 4 4 4 5 6 6 7 8 8 9 9 9 9 9 9 9 9 8 7 6
17 14 12 10 11 13 12 12 13 16 18 19 18 17 13 11 10 9 8 6 6 6 6 6 6 5 5 4 3 4 4 5 5 6 7 7 8 9 9 9 10 10 10 11 11 10 10 9 8
17 15 12 11 13 14 14 13 15 17 21 23 22 20 16 14 11 10 9 8 7 7 6 6 6 6 5 4 4 5 5 6 7 8 8 9 10 10 10 11 12 12 12 12 12 12 12 11 9
16 14 13 13 14 15 14 14 16 20 24 26 27 24 19 13 12 12 10 9 9 8 7 6 6 6 5 4 4 5 6 7 8 10 11 11 12 12 13 14 14 14 14 14 14 14 13 13 11
15 14 14 15 16 17 17 17 20 22 26 27 28 26 22 16 13 12 12 11 10 8 8 7 6 6 6 6 6 7 8 9 11 12 12 13 14 14 15 16 17 16 16 16 16 16 16 15 14
15 14 15 17 18 19 20 20 23 25 28 29 28 27 23 19 17 14 15 13 11 9 8 7 6 6 7 8 8 8 10 12 13 13 14 15 15 15 16 17 18 18 17 17 17 18 17 17 16
14 13 14 16 18 19 20 22 24 27 28 29 29 28 24 20 17 14 14 13 12 10 8 8 6 7 7 8 9 10 12 13 14 15 15 16 16 16 17 17 16 17 17 17 17 17 18 18 18
12 11 11 13 15 17 18 21 23 24 26 28 29 27 22 21 18 15 15 14 12 11 9 8 7 7 8 9 10 11 12 14 15 15 14 14 14 16 16 15 15 15 15 16 16 16 16 17 18
8 8 9 11 13 15 17 19 22 24 25 25 24 22 19 18 17 16 16 15 12 11 9 7 7 7 8 9 10 11 12 13 14 13 13 13 13 13 14 13 13 13 14 14 15 14 15 16 17
8 8 9 10 12 14 16 18 19 20 21 23 21 20 19 17 15 14 13 14 11 10 10 8 8 8 9 9 10 11 12 13 12 12 12 12 12 12 12 12 12 11 12 13 14 15 15 16 16
7 8 9 11 12 14 16 17 17 18 20 21 18 17 17 16 14 13 11 10 9 9 9 8 7 7 8 10 10 10 10 10 9 10 11 10 10 10 10 11 11 11 12 13 14 15 16 16 16
9 9 10 12 15 17 17 15 15 17 18 17 16 14 14 14 13 11 9 9 7 7 7 6 6 7 8 9 9 9 9 8 9 9 10 10 10 10 11 12 12 12 13 14 15 16 17 17 18
10 10 12 13 16 18 17 16 16 16 13 13 11 10 10 10 10 9 8 8 8 7 6 5 5 6 8 8 8 9 9 9 9 9 10 10 11 11 12 13 14 14 15 15 16 17 18 19 19
11 14 14 16 17 18 18 16 16 14 10 9 8 7 7 8 8 7 8 9 8 7 5 4 4 5 6 7 7 8 8 9 9 10 11 11 12 12 13 14 14 16 16 17 17 18 18 19 20
14 15 16 17 17 18 18 15 13 11 8 6 5 4 6 5 7 7 6 7 7 6 4 3 3 5 5 6 6 7 8 9 10 11 11 12 13 14 15 15 16 17 17 18 18 18 18 19 19
14 15 16 16 17 17 16 13 11 8 5 3 4 4 5 6 5 5 5 5 6 5 4 3 4 4 5 6 7 8 8 9 10 10 11 12 13 14 15 16 17 17 18 18 18 18 19 19 19
13 14 15 14 15 15 15 13 12 8 4 1 4 5 6 5 4 4 3 3 4 4 3 3 4 4 6 6 7 8 8 9 9 10 11 12 13 14 15 15 16 17 17 18 18 19 19 20 20
12 13 14 14 14 14 14 11 11 10 6 4 5 5 5 5 5 5 4 3 2 2 2 3 4 4 5 6 7 8 8 8 9 10 11 12 13 14 15 16 17 17 18 18 18 18 19 20 21
11 11 12 12 12 13 10 9 11 9 7 5 5 7 6 5 6 5 4 2 1 0 0 2 3 4 4 5 6 7 8 9 9 10 11 12 13 15 16 16 17 18 18 18 18 18 19 19 20
10 9 10 10 10 9 8 8 9 9 8 7 6 5 6 5 6 5 4 3 1 0 1 1 2 3 4 5 6 7 8 9 9 10 11 12 13 15 16 17 17 18 18 19 19 20 20 20 21
8 7 7 7 8 7 7 8 8 8 8 7 7 6 6 4 4 4 4 3 1 0 1 2 3 4 4 5 6 7 8 9 10 11 12 13 15 16 17 17 18 19 20 20 21 21 22 22 22
8 8 7 7 7 6 6 6 6 6 7 8 8 7 6 5 5 4 3 2 1 1 2 3 3 4 5 6 7 7 8 10 11 12 14 15 16 17 18 19 20 21 22 22 23 23 23 24 24
9 8 8 8 7 7 6 5 5 5 5 6 7 7 6 5 5 4 3 2 1 0 2 3 4 4 5 6 7 8 10 11 12 14 15 16 17 18 20 20 21 22 23 23 24 24 25 26 26
9 9 9 8 7 8 4 3 4 4 4 3 4 5 5 4 4 3 3 2 1 1 2 3 4 5 6 7 8 9 11 12 13 15 16 18 19 20 22 23 23 24 25 25 26 26 27 28 29
10 10 9 9 9 8 6 4 3 3 4 3 3 3 4 4 2 2 1 1 1 2 3 4 5 6 7 8 9 10 12 13 14 16 18 19 20 22 24 24 26 27 27 28 29 30 30 30 31
12 11 11 11 11 10 8 6 5 5 4 3 3 4 4 4 3 2 2 2 2 3 4 5 6 7 8 9 10 12 13 14 16 17 19 20 22 24 25 26 28 29 29 30 31 32 33 33 33
14 14 14 13 12 11 11 9 8 7 6 5 4 4 4 4 4 3 3 3 4 4 5 6 7 8 9 10 12 13 14 16 17 19 21 22 24 26 27 29 30 31 32 33 34 34 35 35 35
Wind_Direction
298 296 296 296 295 296 302 298 297 297 289 298 293 289 301 313 312 270 251 231 208 190 178 178 173 171 164 162 160 337 337 339 338 336 334 334 335 336 337 337 335 333 332 335 339 342 345 349 355
293 292 293 295 300 300 301 304 290 299 295 293 288 275 291 294 271 246 236 227 211 196 188 195 195 195 197 202 218 260 288 309 320 323 321 320 321 323 326 327 326 324 322 322 325 327 333 335 338
290 289 290 295 299 295 296 303 301 297 300 293 289 288 287 286 278 251 231 224 218 210 207 205 206 211 217 223 237 257 277 296 309 313 313 312 312 313 315 316 315 315 313 312 313 315 320 324 324
287 286 286 290 289 288 293 298 299 298 296 293 295 293 281 275 267 252 239 223 220 216 214 213 213 219 224 231 241 253 270 286 299 306 307 309 309 308 308 307 307 308 307 305 303 303 305 308 309
285 283 283 283 274 276 286 295 296 292 291 296 295 289 280 278 267 254 247 226 219 217 216 219 222 229 233 236 249 261 273 281 289 297 302 304 305 304 303 303 304 303 301 300 298 296 296 297 296
282 281 277 272 265 271 278 287 291 285 289 293 289 287 281 281 269 252 245 230 221 216 221 230 233 236 240 247 260 274 282 289 292 293 295 296 297 298 297 297 297 297 295 294 293 292 291 290 289
280 278 270 262 256 258 268 277 278 280 285 287 288 285 279 276 262 244 236 237 228 216 216 226 230 237 244 256 274 286 289 291 294 294 292 294 294 295 296 294 292 292 290 288 286 286 287 287 285
277 273 266 257 252 253 261 265 271 275 279 281 285 285 281 272 258 241 232 227 222 213 209 216 221 236 250 264 278 286 290 293 295 297 294 294 295 296 295 293 287 284 286 284 282 281 283 282 279
278 271 264 259 257 255 258 260 266 272 275 278 283 283 274 265 251 239 229 221 213 211 211 215 224 244 256 266 275 284 290 294 295 294 295 294 295 295 295 292 286 280 281 281 280 277 277 278 276
275 271 265 267 267 263 262 265 267 270 273 277 279 277 268 259 247 233 219 213 205 209 215 220 232 250 260 269 275 281 289 294 294 292 294 292 291 293 294 294 287 282 280 279 279 276 272 272 272
274 272 270 274 274 274 271 269 269 271 272 276 278 274 261 257 249 223 214 213 207 203 207 213 241 260 269 270 273 281 291 295 293 293 295 295 296 294 295 295 290 284 282 281 280 277 276 275 272
293 290 287 285 284 283 279 277 274 275 276 277 275 268 257 251 245 233 222 212 206 208 209 222 245 261 272 276 278 284 291 293 295 292 293 296 298 296 295 294 292 289 286 282 277 277 279 279 276
325 320 319 313 305 298 292 288 287 284 281 277 271 262 256 258 252 238 218 205 205 212 213 219 239 254 266 271 278 284 288 288 290 290 292 295 298 298 294 293 292 289 290 286 282 280 279 278 278
339 332 329 325 316 311 305 301 298 295 287 282 274 257 255 249 244 231 208 207 214 213 214 221 242 264 275 275 276 281 286 285 284 286 291 297 301 299 299 299 297 293 291 289 284 280 277 274 276
337 338 338 339 336 330 319 314 307 302 289 284 276 260 249 237 235 229 213 206 216 217 222 237 257 274 283 286 289 286 288 287 285 289 292 299 302 304 303 302 301 297 294 291 285 279 276 276 276
331 342 348 343 340 338 332 323 314 309 294 285 276 259 236 232 234 225 218 209 216 220 228 242 261 282 291 297 299 295 294 294 296 295 294 298 300 301 301 301 299 298 295 292 288 284 279 277 276
339 341 342 342 341 339 339 336 324 316 300 282 269 253 230 217 206 202 207 207 210 216 222 236 269 286 293 300 303 303 302 298 299 299 297 299 299 298 298 299 297 296 296 294 291 287 283 279 276
345 342 342 341 344 346 343 339 337 326 308 281 256 220 207 187 179 187 201 209 207 204 211 238 274 290 297 303 308 309 305 301 301 300 301 302 300 299 299 299 299 299 297 293 290 286 283 279 276
343 341 341 342 345 346 348 346 345 350 328 256 213 202 188 190 181 180 196 202 202 210 227 235 263 278 293 303 307 307 304 303 304 303 304 304 302 302 302 303 303 301 299 297 293 289 286 282 279
338 340 344 347 349 352 354 357 356 0 4 146 160 166 179 190 187 181 170 163 189 210 232 248 267 285 295 301 307 309 308 308 308 309 307 306 307 308 308 308 306 305 303 300 295 291 288 286 283
334 340 342 342 348 347 351 1 7 20 40 91 107 120 135 142 149 156 156 152 170 225 250 268 281 293 302 311 315 314 315 318 318 317 315 314 315 314 313 312 311 309 307 303 299 295 292 288 285
327 340 345 349 352 353 2 15 23 40 53 57 83 104 113 122 131 137 142 138 162 207 302 298 304 311 316 320 322 322 323 324 324 323 322 321 321 321 318 316 313 311 309 306 303 300 296 292 289
326 335 349 358 357 6 20 27 30 51 53 53 70 101 108 122 128 130 135 142 147 117 7 341 335 330 330 329 329 330 331 333 332 330 329 328 328 325 322 320 318 316 314 311 307 304 300 297 292
316 320 334 342 352 6 22 36 46 56 61 67 78 97 98 109 137 140 139 142 141 60 353 341 335 340 340 336 333 334 336 337 335 334 332 331 330 328 326 325 323 320 317 314 310 306 303 300 296
302 302 308 324 342 350 360 28 42 56 66 71 79 86 89 102 123 135 143 143 118 37 353 348 349 347 339 334 335 339 340 339 337 335 334 333 332 330 327 325 323 320 317 315 312 308 305 302 299
292 295 305 317 331 333 339 6 24 51 63 71 78 82 90 99 113 131 141 132 129 52 349 345 346 339 334 335 340 339 338 338 337 335 334 334 334 332 329 326 324 322 319 316 313 311 308 305 301
277 278 286 294 309 312 315 347 19 40 49 59 72 75 81 90 97 105 112 111 81 15 356 343 338 333 330 332 334 334 335 335 335 334 334 333 332 330 329 327 325 323 321 318 314 312 310 307 304
278 269 264 271 288 298 305 305 339 357 19 38 55 62 68 74 65 47 47 29 352 339 337 333 327 326 323 325 329 331 332 330 330 330 331 331 330 330 329 328 326 324 321 319 315 313 311 308 305
281 269 265 266 276 281 286 291 304 326 337 1 19 23 29 42 35 6 355 357 345 336 329 324 322 319 319 321 325 326 326 325 326 327 329 329 329 328 328 327 325 324 321 319 317 314 312 309 306
275 272 273 266 269 270 275 283 288 300 319 326 337 350 359 4 1 343 331 328 321 317 316 314 315 315 316 318 320 320 320 321 323 324 324 325 326 325 324 324 323 322 321 319 317 315 313 311 307
Height
5922 5921 5920 5920 5920 5919 5918 5916 5914 5913 5912 5911 5909 5909 5911 5912 5914 5915 5913 5911 5911 5911 5911 5911 5911 5912 5912 5912 5913 5913 5913 5913 5912 5912 5912 5911 5910 5910 5909 5908 5907 5907 5906 5905 5905 5904 5904 5903 5903
5920 5919 5919 5919 5918 5917 5916 5914 5912 5910 5909 5908 5907 5907 5909 5910 5911 5912 5911 5910 5910 5910 5910 5910 5911 5911 5912 5912 5912 5912 5912 5912 5912 5911 5911 5910 5910 5909 5908 5908 5907 5906 5906 5905 5905 5904 5904 5903 5903
5918 5917 5918 5917 5916 5915 5914 5912 5910 5907 5906 5905 5904 5905 5908 5909 5910 5910 5910 5909 5909 5909 5909 5910 5910 5910 5911 5911 5911 5912 5912 5911 5911 5911 5910 5909 5909 5908 5908 5907 5907 5906 5905 5905 5904 5904 5903 5903 5902
5916 5916 5916 5916 5914 5912 5909 5908 5906 5905 5904 5903 5903 5905 5906 5907 5907 5907 5908 5907 5908 5908 5908 5908 5909 5909 5909 5910 5910 5910 5910 5910 5910 5909 5909 5908 5908 5907 5906 5906 5905 5905 5904 5904 5903 5903 5902 5902 5901
5913 5913 5914 5913 5912 5909 5907 5905 5904 5903 5901 5900 5901 5903 5904 5904 5904 5905 5906 5905 5906 5906 5907 5907 5907 5908 5908 5908 5909 5909 5909 5909 5908 5908 5907 5907 5906 5906 5905 5904 5904 5903 5903 5902 5902 5901 5901 5900 5900
5911 5911 5911 5910 5909 5906 5903 5901 5900 5900 5899 5899 5899 5900 5900 5902 5901 5902 5903 5903 5904 5904 5905 5906 5906 5907 5907 5907 5907 5907 5907 5907 5907 5906 5906 5905 5905 5904 5903 5903 5902 5901 5901 5900 5900 5899 5899 5899 5899
5908 5908 5908 5907 5905 5902 5901 5899 5897 5897 5897 5896 5896 5897 5897 5898 5898 5898 5900 5900 5901 5901 5902 5903 5904 5905 5905 5905 5905 5905 5905 5905 5904 5904 5903 5903 5903 5902 5901 5901 5900 5899 5898 5898 5897 5897 5897 5897 5897
5904 5906 5904 5903 5902 5900 5898 5896 5894 5894 5893 5892 5892 5893 5893 5895 5894 5895 5896 5897 5898 5898 5900 5901 5902 5903 5903 5903 5903 5903 5903 5902 5902 5901 5901 5900 5900 5899 5898 5897 5896 5896 5895 5895 5894 5894 5894 5894 5894
5901 5903 5900 5899 5898 5897 5894 5893 5891 5890 5889 5888 5888 5888 5888 5889 5889 5890 5892 5894 5896 5896 5897 5899 5900 5900 5900 5900 5901 5901 5900 5900 5899 5899 5898 5897 5897 5896 5895 5893 5892 5892 5892 5891 5891 5890 5890 5891 5891
5898 5898 5897 5896 5895 5893 5891 5889 5887 5885 5884 5883 5883 5882 5882 5883 5885 5886 5888 5890 5892 5894 5896 5897 5897 5898 5898 5898 5898 5898 5898 5897 5896 5895 5895 5894 5893 5892 5891 5890 5889 5888 5888 5888 5887 5887 5887 5887 5887
5895 5895 5894 5893 5891 5889 5888 5886 5884 5881 5881 5880 5878 5877 5876 5878 5880 5881 5883 5886 5888 5890 5892 5894 5895 5895 5895 5896 5895 5896 5895 5894 5893 5892 5892 5891 5890 5889 5888 5887 5885 5885 5885 5885 5884 5883 5883 5884 5884
5893 5892 5891 5889 5888 5886 5884 5882 5880 5877 5876 5875 5873 5872 5871 5872 5875 5879 5879 5881 5885 5887 5889 5891 5892 5893 5893 5893 5893 5893 5893 5892 5890 5889 5888 5888 5887 5886 5885 5884 5883 5882 5882 5881 5881 5880 5880 5881 5880
5891 5890 5889 5887 5885 5882 5880 5878 5875 5872 5869 5869 5868 5868 5869 5870 5871 5872 5874 5878 5881 5884 5887 5888 5890 5890 5890 5890 5891 5890 5890 5889 5887 5886 5886 5885 5884 5883 5882 5881 5880 5879 5879 5878 5878 5877 5877 5877 5877
5890 5888 5887 5885 5882 5879 5876 5873 5871 5868 5865 5863 5862 5863 5866 5867 5868 5869 5871 5874 5878 5881 5883 5885 5886 5887 5887 5887 5888 5888 5887 5886 5885 5884 5883 5882 5881 5880 5879 5879 5877 5877 5876 5876 5875 5874 5874 5874 5873
5889 5887 5885 5883 5880 5876 5873 5870 5867 5863 5861 5860 5859 5860 5861 5863 5865 5866 5869 5872 5875 5877 5879 5880 5882 5883 5883 5884 5884 5884 5883 5882 5882 5881 5880 5879 5878 5878 5877 5875 5875 5874 5873 5872 5871 5871 5870 5869 5869
5887 5885 5883 5881 5877 5874 5872 5867 5863 5860 5858 5857 5857 5858 5859 5860 5863 5865 5867 5870 5873 5875 5877 5878 5879 5880 5881 5881 5881 5881 5880 5879 5879 5878 5877 5876 5875 5875 5874 5872 5871 5870 5869 5868 5868 5867 5866 5865 5864
5885 5882 5880 5878 5875 5872 5868 5864 5861 5858 5856 5856 5856 5856 5858 5859 5861 5864 5866 5868 5871 5873 5875 5876 5877 5878 5879 5879 5879 5878 5877 5877 5876 5875 5874 5873 5872 5871 5870 5869 5868 5867 5865 5864 5863 5862 5861 5861 5860
5883 5880 5878 5876 5873 5869 5865 5862 5859 5857 5856 5855 5855 5855 5857 5859 5861 5863 5865 5867 5869 5871 5873 5874 5875 5876 5877 5877 5876 5876 5875 5874 5873 5872 5871 5870 5869 5868 5867 5865 5864 5863 5861 5860 5859 5858 5857 5856 5855
5881 5879 5876 5875 5872 5868 5864 5860 5858 5855 5854 5854 5854 5855 5857 5859 5860 5862 5864 5866 5868 5870 5871 5872 5873 5874 5874 5874 5874 5873 5873 5872 5871 5869 5868 5867 5866 5864 5863 5861 5860 5858 5857 5855 5854 5853 5852 5851 5850
5880 5878 5876 5874 5871 5868 5865 5860 5857 5855 5854 5854 5855 5856 5857 5858 5860 5863 5864 5866 5867 5869 5870 5871 5871 5872 5872 5872 5871 5871 5870 5869 5868 5867 5865 5864 5862 5861 5859 5857 5855 5854 5852 5850 5849 5847 5846 5845 5845
5879 5877 5875 5873 5871 5868 5865 5862 5859 5856 5853 5854 5855 5857 5857 5859 5860 5862 5864 5865 5866 5867 5867 5868 5869 5869 5869 5869 5869 5868 5868 5866 5865 5863 5862 5860 5859 5857 5855 5853 5851 5849 5848 5846 5844 5843 5841 5840 5839
5877 5876 5874 5872 5870 5867 5865 5863 5860 5857 5856 5855 5856 5857 5858 5859 5861 5862 5863 5864 5865 5866 5866 5867 5867 5867 5867 5867 5866 5866 5865 5863 5862 5861 5859 5857 5855 5853 5851 5849 5847 5845 5843 5841 5839 5838 5836 5834 5833
5876 5875 5873 5872 5869 5868 5866 5864 5862 5858 5858 5857 5856 5857 5859 5859 5861 5862 5863 5864 5865 5865 5865 5865 5865 5865 5865 5865 5864 5863 5862 5861 5859 5858 5857 5855 5852 5850 5848 5845 5843 5841 5839 5836 5834 5832 5830 5829 5827
5875 5874 5873 5871 5869 5868 5866 5864 5863 5860 5859 5858 5858 5858 5859 5859 5860 5861 5862 5863 5864 5864 5864 5864 5864 5864 5863 5863 5862 5861 5860 5858 5857 5855 5853 5851 5849 5847 5844 5842 5839 5837 5834 5832 5829 5827 5825 5823 5821
5873 5872 5872 5870 5868 5867 5866 5864 5863 5861 5860 5859 5859 5859 5859 5860 5860 5861 5862 5862 5862 5862 5863 5862 5862 5862 5861 5861 5859 5858 5857 5856 5854 5852 5850 5848 5846 5843 5841 5838 5835 5832 5829 5827 5824 5822 5819 5817 5815
5870 5870 5870 5868 5867 5866 5865 5864 5863 5861 5860 5859 5859 5860 5860 5860 5860 5861 5861 5861 5861 5861 5861 5861 5860 5860 5859 5858 5857 5856 5855 5853 5851 5849 5847 5845 5842 5839 5837 5834 5831 5827 5824 5821 5818 5816 5813 5810 5808
5868 5867 5867 5866 5865 5864 5863 5863 5863 5861 5860 5859 5859 5859 5859 5859 5860 5860 5860 5860 5860 5859 5859 5859 5858 5858 5857 5856 5855 5853 5852 5850 5848 5846 5844 5841 5838 5835 5832 5829 5826 5822 5819 5816 5812 5809 5806 5803 5800
5866 5865 5864 5864 5863 5862 5861 5861 5861 5861 5859 5859 5858 5858 5858 5858 5858 5858 5858 5858 5858 5857 5857 5857 5856 5856 5855 5854 5852 5850 5849 5847 5845 5843 5840 5837 5834 5831 5828 5824 5820 5817 5813 5810 5806 5802 5799 5795 5792
5863 5862 5861 5861 5860 5860 5859 5861 5860 5859 5858 5857 5857 5857 5856 5856 5855 5855 5855 5855 5855 5855 5855 5854 5854 5853 5852 5851 5849 5848 5846 5844 5842 5839 5836 5833 5830 5826 5823 5819 5815 5811 5807 5803 5799 5795 5791 5787 5783
5859 5859 5859 5859 5858 5857 5856 5859 5857 5856 5856 5855 5855 5854 5854 5853 5853 5853 5853 5853 5852 5852 5852 5852 5851 5850 5849 5848 5846 5844 5843 5840 5838 5835 5832 5828 5825 5821 5818 5814 5810 5805 5801 5796 5792 5787 5783 5778 5774